Search your local weather  

 

Hazardous Weather Conditions

Air Quality Alert issued September 27 at 2:58PM CDT
Air Quality Alert issued September 28 at 3:02PM CDT

Current Conditions: SAN ANTONIO, TEXAS

Clear


NULL F

Last Updated on Sep 28 2022, 04:15 PM CDT
Humidity: %
Wind Speed: mph
Barometer in
Dewpoint: F
Visibility: 10.00 mi
Precip: --
Heat Index: NA
Wind Chill: NA
Current conditions at:

S ANTONIO-BOERNE (K5C1)

Lat: 29.72 Lon: -98.69

Local Radar Image active severe weather and emergency alerts image image weather storm and storm spotter reports image weather observation monitoring service image
Local
Radar
Active
Alerts
Storm Reports Weather
Monitoring

5 Day Forecast for SAN ANTONIO, TEXAS (78201)

Wednesday

Mostly Sunny

High 91 °F
Wednesday
Night
Mostly Clear

Low 66 °F
Thursday

Mostly Sunny

High 93 °F
Thursday
Night
Clear

Low 64 °F
Friday

Sunny

High 90 °F
Friday
Night
Clear

Low 59 °F
Saturday

Mostly Sunny

High 90 °F
Saturday
Night
Mostly Clear

Low 61 °F
Sunday

Mostly Sunny

High 90 °F

Sign-up For Email & Text Message Weather Alert Notification Services



Advertise Here

Observation History for SAN ANTONIO, TEXAS


Time Wind
(mph)
Vis
(mi)
Weather Precip (in) Temperature (F) Relative
Humidity
Wind
Chill
(F)
Heat
Index
(F)
Pressure
Air Dwpt altimeter
(in)
sea level
(mb)
04:15 PM CDT 10.00 Clear -- NULL % NA NA M
03:55 PM CDT 10.00 Clear -- NULL % NA NA M
03:35 PM CDT S 4.7 10.00 Clear -- 84.2 35.6 18% NA 81.3 30.23 1023.7
03:15 PM CDT 10.00 Clear -- NULL % NA NA M
02:55 PM CDT 0.0 10.00 Clear -- 82.4 % NA NA 30.25 1024.4
02:35 PM CDT 9.2 10.00 Clear -- 82.4 % NA NA 30.25 1024.4
01:55 PM CDT 10.3 10.00 Clear -- 82.4 % NA NA 30.27 1025.1
01:35 PM CDT 8.1 10.00 Clear -- 82.4 % NA NA 30.27 1025.1
12:55 PM CDT 10.00 Clear -- NULL % NA NA M
12:35 PM CDT SE 9.2 10.00 Clear -- 80.6 % NA NA 30.29 1025.7
12:15 PM CDT E 6.9 10.00 Clear -- 78.8 % NA NA 30.30 1026.1
11:55 AM CDT 0.0 10.00 Clear -- 78.8 % NA NA 30.30 1026.1
11:35 AM CDT SE 9.2 10.00 Clear -- 78.8 44.6 30% NA 77.7 30.30 1026.1
11:15 AM CDT 10.00 Clear -- NULL % NA NA M
10:35 AM CDT 8.1 10.00 Clear -- 77.0 44.6 32% NA 75.9 30.30 1026.1
10:15 AM CDT 3.4 10.00 Clear -- 73.4 44.6 36% NA 72.1 30.30 1026.1
09:55 AM CDT 10.00 Clear -- NULL % NA NA M
09:35 AM CDT NE 3.4 10.00 Clear -- 68.0 42.8 40% NA NA 30.29 1025.7
09:15 AM CDT 10.00 Clear -- NULL % NA NA M
08:55 AM CDT 0.0 10.00 Clear -- NULL 42.8 % NA NA 30.27 1025.1
08:35 AM CDT 0.0 10.00 Clear -- 60.8 42.8 51% NA NA 30.27 1025.1
08:15 AM CDT 10.00 Clear -- NULL % NA NA M
07:55 AM CDT 10.00 Clear -- NULL % NA NA M
07:35 AM CDT 10.00 Clear -- NULL % NA NA M

Regional Weather Observation

SAN ANTONIO (KSAT)

Clear
88.0 F

CASTROVILLE MUNI (KCVB)

Clear
60.8 F

KELLY AFB (KSKF)

Clear
88.9 F

S ANTONIO/STINSN (KSSF)

Clear
91.0 F

RANDOLPH AFB (KRND)

Clear
89.6 F

NEW BRAUNFELS (KBAZ)

Clear
91.9 F

Advertise Here


Advertise Here